User: anonymous   Login
Location: Oshawa
(43.9000°N, 78.8670°W)
Time: 05:28:17
(UTC-05:00)
Language:

Iridium 54 - Orbit

View from above orbital plane
View from above orbital plane
View from above satellite
View from above satellite

Ground track
Ground track

The orbit data is extracted from the following two-line orbital elements,

1 25171U 98010C   17022.48091515 -.00000032  00000-0 -18462-4 0  9991
2 25171  86.3937  51.3189 0002020  88.3151 271.8276 14.34217973991048
Epoch (UTC): 22 January 2017 11:32:31
Eccentricity: 0.0002020
inclination: 86.3937°
perigee height: 776 km
apogee height: 779 km
right ascension of ascending node: 51.3189°
argument of perigee: 88.3151°
revolutions per day: 14.34217973
mean anomaly at epoch: 271.8276°
orbit number at epoch: 99104

The dashed part of the orbit path shows where the satellite is in the earth's shadow,  

DLR